Regional Weather Roundup
Issued by NWS

Home | Current Version | Previous Version | Text Only | Print | Product List | Glossary On
Versions: 1 2 3 4 5 6 7 8 9 10 11 12 13 14 15 16 17 18 19 20 21 22 23 24 25 26 27 28 29 30 31 32 33 34 35 36 37 38 39 40 41 42 43 44 45 46 47 48 49 50
000
ASUS43 KLSX 291307
RWRMO

WEATHER SUMMARY FOR MISSOURI
NATIONAL WEATHER SERVICE SPRINGFIELD MO
800 AM CDT WED MAR 29 2017

NOTE: "FAIR" INDICATES FEW OR NO CLOUDS BELOW 12,000 FEET WITH NO
       SIGNIFICANT WEATHER AND/OR OBSTRUCTIONS TO VISIBILITY.
       CURRENT SKY AND/OR WEATHER CONDITIONS ARE NOT AVAILABLE FOR
       CHILLICOTHE AND FARMINGTON.

MOZ001>031-035>038-043-044-053-054-291400-
...NORTHERN AND WESTERN MISSOURI...

CITY           SKY/WX    TMP DP  RH WIND       PRES   REMARKS
KANSAS CTY INT LGT RAIN  49  47  93 E18G26    29.87F
KANSAS C DTWN  CLOUDY    50  48  93 E16G26    29.87F
LEE`S SUMMIT   CLOUDY    49  48  97 E17G26    29.87F
ST JOSEPH      CLOUDY    49  48  97 E18G25    29.90R
CHILLICOTHE      N/A     48  48 100 E13G21    29.97F
KIRKSVILLE     HVY RAIN  44  43  96 E21G32    29.99F FOG

$$
MOZ066>068-077>081-088>096-101>105-291400-
...SOUTHWEST MISSOURI...

CITY           SKY/WX    TMP DP  RH WIND       PRES   REMARKS
SPRINGFIELD    CLOUDY    56  51  84 SE20G29   29.82F
JOPLIN         CLOUDY    57  54  89 SE20G29   29.72S
BRANSON        CLOUDY    54  52  94 E14G22    29.85S

$$
MOZ032>034-039>042-045>050-055>058-069>072-291400-
...CENTRAL MISSOURI...

CITY           SKY/WX    TMP DP  RH WIND       PRES   REMARKS
COLUMBIA       CLOUDY    51  48  89 NE8       29.98F
JEFFERSON CITY TSTM      54  49  83 VRB3      29.99R
ROLLA          CLOUDY    52  49  89 E16       29.93R
SEDALIA        CLOUDY    51  51 100 E16       29.92F
WHITEMAN AFB   CLOUDY    49  49 100 E16       29.89F
WARRENSBURG    CLOUDY    48  46  93 NE14      29.89F
OSAGE BEACH    CLOUDY    52  50  93 E9        29.93F

$$
MOZ051-052-059>065-291400-
...EAST CENTRAL MISSOURI...

CITY           SKY/WX    TMP DP  RH WIND       PRES   REMARKS
ST LOUIS INTL  CLOUDY    50  44  80 E14G20    30.03R
SPIRIT OF STL  CLOUDY    51  46  83 E8        30.03R
ST CHARLES     CLOUDY    49  45  86 E15       30.04R

$$
MOZ072>076-082>087-097>100-106>115-291400-
...SOUTH CENTRAL AND SOUTHEAST MISSOURI...

CITY           SKY/WX    TMP DP  RH WIND       PRES   REMARKS
CAPE GIRARDEAU CLOUDY    55  50  83 E9        29.99S
FARMINGTON     CLOUDY    51  49  92 E8        29.99F
POPLAR BLUFF   CLOUDY    56  53  90 E9        29.97R
WEST PLAINS    CLOUDY    54  51  90 E13       29.94S

$$


USA.gov is the U.S. government's official web portal to all federal, state and local government web resources and services.